******** Week 152 almanac for PRN-1 ******** ID: 1 Health: 0 Eccentricity: 0.01149988174 Time of Applicability(s): 147456 Orbital Inclination(rad): 0.9871070496 Rate of Right Ascen(r/s): -7.554600394e-09 SQRT(A) (m 1/2): 5153.628906 Right Ascen at Week(rad): -2.28617104 Argument of Perigee(rad): 0.8829591172 Mean Anom(rad): -1.958555662 Af0(s): 0.0003278483276 Af1(s/s): -1.091394e-11 week: 152 ******** Week 152 almanac for PRN-2 ******** ID: 2 Health: 0 Eccentricity: 0.02060317993 Time of Applicability(s): 147456 Orbital Inclination(rad): 0.9654275868 Rate of Right Ascen(r/s): -7.748894201e-09 SQRT(A) (m 1/2): 5153.660645 Right Ascen at Week(rad): -2.37584113 Argument of Perigee(rad): -1.434537188 Mean Anom(rad): -1.823737625 Af0(s): -0.0005155132324 Af1(s/s): 0 week: 152 ******** Week 152 almanac for PRN-3 ******** ID: 3 Health: 0 Eccentricity: 0.003926753998 Time of Applicability(s): 147456 Orbital Inclination(rad): 0.97252824 Rate of Right Ascen(r/s): -7.897471818e-09 SQRT(A) (m 1/2): 5153.61377 Right Ascen at Week(rad): -1.251030242 Argument of Perigee(rad): 0.9487884646 Mean Anom(rad): -3.101653727 Af0(s): -0.0001205878906 Af1(s/s): -1.818989e-11 week: 152 ******** Week 152 almanac for PRN-4 ******** ID: 4 Health: 0 Eccentricity: 0.001736164093 Time of Applicability(s): 147456 Orbital Inclination(rad): 0.9615446979 Rate of Right Ascen(r/s): -7.897471818e-09 SQRT(A) (m 1/2): 5153.591309 Right Ascen at Week(rad): -0.1696093646 Argument of Perigee(rad): -3.02779832 Mean Anom(rad): -0.2054777752 Af0(s): -0.0001462128174 Af1(s/s): 3.637979e-12 week: 152 ******** Week 152 almanac for PRN-5 ******** ID: 5 Health: 0 Eccentricity: 0.005875110626 Time of Applicability(s): 147456 Orbital Inclination(rad): 0.9595193639 Rate of Right Ascen(r/s): -8.023191341e-09 SQRT(A) (m 1/2): 5153.62207 Right Ascen at Week(rad): -1.291718558 Argument of Perigee(rad): 1.007204445 Mean Anom(rad): 0.6990993856 Af0(s): -5.803292236e-05 Af1(s/s): 0 week: 152 ******** Week 152 almanac for PRN-6 ******** ID: 6 Health: 0 Eccentricity: 0.002696037292 Time of Applicability(s): 147456 Orbital Inclination(rad): 0.9864718857 Rate of Right Ascen(r/s): -7.577458489e-09 SQRT(A) (m 1/2): 5153.64209 Right Ascen at Week(rad): -2.294441653 Argument of Perigee(rad): -0.9284965503 Mean Anom(rad): -1.659839493 Af0(s): 0.00017635979 Af1(s/s): 1.091394e-11 week: 152 ******** Week 152 almanac for PRN-7 ******** ID: 7 Health: 0 Eccentricity: 0.01564741135 Time of Applicability(s): 147456 Orbital Inclination(rad): 0.9510405248 Rate of Right Ascen(r/s): -7.817468486e-09 SQRT(A) (m 1/2): 5153.637695 Right Ascen at Week(rad): 0.8487714941 Argument of Perigee(rad): -2.287748089 Mean Anom(rad): -2.631436559 Af0(s): 0.0002487125244 Af1(s/s): 3.637979e-12 week: 152 ******** Week 152 almanac for PRN-8 ******** ID: 8 Health: 0 Eccentricity: 0.007367610931 Time of Applicability(s): 147456 Orbital Inclination(rad): 0.9646845648 Rate of Right Ascen(r/s): -8.046049436e-09 SQRT(A) (m 1/2): 5153.679199 Right Ascen at Week(rad): 2.917292156 Argument of Perigee(rad): 0.1219567158 Mean Anom(rad): 0.2811263225 Af0(s): -4.672780762e-05 Af1(s/s): 0 week: 152 ******** Week 152 almanac for PRN-9 ******** ID: 9 Health: 0 Eccentricity: 0.002192020416 Time of Applicability(s): 147456 Orbital Inclination(rad): 0.9545339263 Rate of Right Ascen(r/s): -7.988904198e-09 SQRT(A) (m 1/2): 5153.552246 Right Ascen at Week(rad): -0.2227110907 Argument of Perigee(rad): 1.879187136 Mean Anom(rad): 0.6710521798 Af0(s): -0.0002773521484 Af1(s/s): 3.637979e-12 week: 152 ******** Week 152 almanac for PRN-10 ******** ID: 10 Health: 0 Eccentricity: 0.007529258728 Time of Applicability(s): 147456 Orbital Inclination(rad): 0.9723424845 Rate of Right Ascen(r/s): -7.863184676e-09 SQRT(A) (m 1/2): 5153.625977 Right Ascen at Week(rad): -1.253813579 Argument of Perigee(rad): -2.503364518 Mean Anom(rad): 2.281958584 Af0(s): -0.0002683080566 Af1(s/s): -1.091394e-11 week: 152 ******** Week 152 almanac for PRN-11 ******** ID: 11 Health: 255 Eccentricity: 0.0002717971802 Time of Applicability(s): 147456 Orbital Inclination(rad): 0.9621978382 Rate of Right Ascen(r/s): -7.806039438e-09 SQRT(A) (m 1/2): 5153.733887 Right Ascen at Week(rad): -2.242885892 Argument of Perigee(rad): 2.794022044 Mean Anom(rad): 0.2227979763 Af0(s): -5.426455078e-05 Af1(s/s): 1.091394e-11 week: 152 ******** Week 152 almanac for PRN-12 ******** ID: 12 Health: 0 Eccentricity: 0.008726119995 Time of Applicability(s): 147456 Orbital Inclination(rad): 0.9697898446 Rate of Right Ascen(r/s): -8.011762293e-09 SQRT(A) (m 1/2): 5153.538574 Right Ascen at Week(rad): 1.961935962 Argument of Perigee(rad): 1.25635723 Mean Anom(rad): 3.006775742 Af0(s): -0.0001431981201 Af1(s/s): -7.275958e-12 week: 152 ******** Week 152 almanac for PRN-13 ******** ID: 13 Health: 0 Eccentricity: 0.00581073761 Time of Applicability(s): 147456 Orbital Inclination(rad): 0.9690228542 Rate of Right Ascen(r/s): -7.794610391e-09 SQRT(A) (m 1/2): 5153.622559 Right Ascen at Week(rad): -0.06959950969 Argument of Perigee(rad): 0.9489854553 Mean Anom(rad): -0.2537955485 Af0(s): 0.0002155508545 Af1(s/s): 7.275958e-12 week: 152 ******** Week 152 almanac for PRN-14 ******** ID: 14 Health: 0 Eccentricity: 0.001531600952 Time of Applicability(s): 147456 Orbital Inclination(rad): 0.9531916931 Rate of Right Ascen(r/s): -8.171768958e-09 SQRT(A) (m 1/2): 5153.596191 Right Ascen at Week(rad): 1.930302477 Argument of Perigee(rad): 3.020350124 Mean Anom(rad): 3.071897646 Af0(s): -7.235273437e-05 Af1(s/s): -3.637979e-12 week: 152 ******** Week 152 almanac for PRN-15 ******** ID: 15 Health: 0 Eccentricity: 0.01394462585 Time of Applicability(s): 147456 Orbital Inclination(rad): 0.9303437684 Rate of Right Ascen(r/s): -8.286059433e-09 SQRT(A) (m 1/2): 5153.685059 Right Ascen at Week(rad): -0.3292557187 Argument of Perigee(rad): 1.078703829 Mean Anom(rad): -0.7017538915 Af0(s): -6.180129394e-05 Af1(s/s): 3.637979e-12 week: 152 ******** Week 152 almanac for PRN-16 ******** ID: 16 Health: 0 Eccentricity: 0.01278686523 Time of Applicability(s): 147456 Orbital Inclination(rad): 0.9697299235 Rate of Right Ascen(r/s): -8.011762293e-09 SQRT(A) (m 1/2): 5153.563477 Right Ascen at Week(rad): 1.980547838 Argument of Perigee(rad): 0.7157035292 Mean Anom(rad): 1.152392581 Af0(s): -0.0003775908325 Af1(s/s): -3.637979e-12 week: 152 ******** Week 152 almanac for PRN-17 ******** ID: 17 Health: 0 Eccentricity: 0.01354932785 Time of Applicability(s): 147456 Orbital Inclination(rad): 0.9798685778 Rate of Right Ascen(r/s): -7.851755628e-09 SQRT(A) (m 1/2): 5153.723633 Right Ascen at Week(rad): 2.9994575 Argument of Perigee(rad): -1.494977005 Mean Anom(rad): 0.1976614391 Af0(s): 0.000462002356 Af1(s/s): 3.637979e-12 week: 152 ******** Week 152 almanac for PRN-18 ******** ID: 18 Health: 0 Eccentricity: 0.002119541168 Time of Applicability(s): 147456 Orbital Inclination(rad): 0.9708923933 Rate of Right Ascen(r/s): -7.726036106e-09 SQRT(A) (m 1/2): 5153.572754 Right Ascen at Week(rad): -2.278658429 Argument of Perigee(rad): 3.091985828 Mean Anom(rad): -1.733513639 Af0(s): 0.0001778671387 Af1(s/s): -7.275958e-12 week: 152 ******** Week 152 almanac for PRN-19 ******** ID: 19 Health: 0 Eccentricity: 0.009010791779 Time of Applicability(s): 147456 Orbital Inclination(rad): 0.978652179 Rate of Right Ascen(r/s): -7.828897533e-09 SQRT(A) (m 1/2): 5153.642578 Right Ascen at Week(rad): 3.044296852 Argument of Perigee(rad): 2.016359698 Mean Anom(rad): 2.616224458 Af0(s): 0.0001009923584 Af1(s/s): 3.637979e-12 week: 152 ******** Week 152 almanac for PRN-20 ******** ID: 20 Health: 0 Eccentricity: 0.005077362061 Time of Applicability(s): 147456 Orbital Inclination(rad): 0.9417407662 Rate of Right Ascen(r/s): -8.160339911e-09 SQRT(A) (m 1/2): 5153.704102 Right Ascen at Week(rad): -1.406166408 Argument of Perigee(rad): -3.136731928 Mean Anom(rad): -0.9655506502 Af0(s): 0.0004084914795 Af1(s/s): 0 week: 152 ******** Week 152 almanac for PRN-21 ******** ID: 21 Health: 0 Eccentricity: 0.02457046509 Time of Applicability(s): 147456 Orbital Inclination(rad): 0.959687143 Rate of Right Ascen(r/s): -7.771752296e-09 SQRT(A) (m 1/2): 5153.52832 Right Ascen at Week(rad): -2.377603934 Argument of Perigee(rad): -0.9908152688 Mean Anom(rad): 0.4026868098 Af0(s): 0.0001258636108 Af1(s/s): 0 week: 152 ******** Week 152 almanac for PRN-22 ******** ID: 22 Health: 0 Eccentricity: 0.01303243637 Time of Applicability(s): 147456 Orbital Inclination(rad): 0.9617064849 Rate of Right Ascen(r/s): -7.851755628e-09 SQRT(A) (m 1/2): 5153.609863 Right Ascen at Week(rad): -0.121300954 Argument of Perigee(rad): -1.868790821 Mean Anom(rad): 0.0902161216 Af0(s): 0.0001771134644 Af1(s/s): 7.275958e-12 week: 152 ******** Week 152 almanac for PRN-23 ******** ID: 23 Health: 0 Eccentricity: 0.001994609833 Time of Applicability(s): 147456 Orbital Inclination(rad): 0.9673989918 Rate of Right Ascen(r/s): -7.931758961e-09 SQRT(A) (m 1/2): 5153.648926 Right Ascen at Week(rad): -1.278781588 Argument of Perigee(rad): 2.983634578 Mean Anom(rad): -2.696346492 Af0(s): -3.768371582e-06 Af1(s/s): -3.637979e-12 week: 152 ******** Week 152 almanac for PRN-24 ******** ID: 24 Health: 0 Eccentricity: 0.01236534119 Time of Applicability(s): 147456 Orbital Inclination(rad): 0.9345921761 Rate of Right Ascen(r/s): -7.988904198e-09 SQRT(A) (m 1/2): 5153.64209 Right Ascen at Week(rad): 0.7656829902 Argument of Perigee(rad): 0.8106066063 Mean Anom(rad): -1.665371711 Af0(s): 0.0002132898315 Af1(s/s): -3.637979e-12 week: 152 ******** Week 152 almanac for PRN-25 ******** ID: 25 Health: 0 Eccentricity: 0.01054954529 Time of Applicability(s): 147456 Orbital Inclination(rad): 0.9572124006 Rate of Right Ascen(r/s): -8.126052768e-09 SQRT(A) (m 1/2): 5153.648926 Right Ascen at Week(rad): 1.884927205 Argument of Perigee(rad): 0.988745743 Mean Anom(rad): 2.738139604 Af0(s): 0.0002328853638 Af1(s/s): 3.637979e-12 week: 152 ******** Week 152 almanac for PRN-26 ******** ID: 26 Health: 0 Eccentricity: 0.006904602051 Time of Applicability(s): 147456 Orbital Inclination(rad): 0.9380676013 Rate of Right Ascen(r/s): -8.286059433e-09 SQRT(A) (m 1/2): 5153.654297 Right Ascen at Week(rad): 1.837521731 Argument of Perigee(rad): 0.3802212567 Mean Anom(rad): 2.083429038 Af0(s): 0.0001492275146 Af1(s/s): 3.637979e-12 week: 152 ******** Week 152 almanac for PRN-27 ******** ID: 27 Health: 0 Eccentricity: 0.01035165787 Time of Applicability(s): 147456 Orbital Inclination(rad): 0.9734090806 Rate of Right Ascen(r/s): -7.943188008e-09 SQRT(A) (m 1/2): 5153.603516 Right Ascen at Week(rad): 2.936877001 Argument of Perigee(rad): 0.6474260294 Mean Anom(rad): 0.2576091536 Af0(s): 0.0001153121704 Af1(s/s): 1.455192e-11 week: 152 ******** Week 152 almanac for PRN-29 ******** ID: 29 Health: 0 Eccentricity: 0.00189447403 Time of Applicability(s): 147456 Orbital Inclination(rad): 0.9818999039 Rate of Right Ascen(r/s): -7.851755628e-09 SQRT(A) (m 1/2): 5153.696289 Right Ascen at Week(rad): 3.012508321 Argument of Perigee(rad): 2.242049617 Mean Anom(rad): 0.3914980378 Af0(s): -0.00038588125 Af1(s/s): -3.637979e-12 week: 152 ******** Week 152 almanac for PRN-30 ******** ID: 30 Health: 0 Eccentricity: 0.005595684051 Time of Applicability(s): 147456 Orbital Inclination(rad): 0.9361980622 Rate of Right Ascen(r/s): -7.988904198e-09 SQRT(A) (m 1/2): 5153.519043 Right Ascen at Week(rad): 0.8615916187 Argument of Perigee(rad): -2.735539027 Mean Anom(rad): -2.582287006 Af0(s): -0.0004092451538 Af1(s/s): -3.637979e-12 week: 152 ******** Week 152 almanac for PRN-31 ******** ID: 31 Health: 0 Eccentricity: 0.01044225693 Time of Applicability(s): 147456 Orbital Inclination(rad): 0.9552529798 Rate of Right Ascen(r/s): -7.806039438e-09 SQRT(A) (m 1/2): 5153.651855 Right Ascen at Week(rad): 0.8669425751 Argument of Perigee(rad): 0.3804807901 Mean Anom(rad): -3.086412415 Af0(s): -0.0001326466797 Af1(s/s): 0 week: 152 ******** Week 152 almanac for PRN-32 ******** ID: 32 Health: 0 Eccentricity: 0.005728244781 Time of Applicability(s): 147456 Orbital Inclination(rad): 0.9583808625 Rate of Right Ascen(r/s): -7.920329913e-09 SQRT(A) (m 1/2): 5153.518555 Right Ascen at Week(rad): -0.2114249469 Argument of Perigee(rad): -2.326936879 Mean Anom(rad): 0.8834703193 Af0(s): -6.330864258e-05 Af1(s/s): -7.275958e-12 week: 152